UTA5550 USSS-USTR

Flight info

Callsign UTA5550
Flight time N/A
Altitude 21000
Route K0711F210 ANATU6B ANATU P135 GIBUL P983 GINPA GINPA2L
Aircraft B738/M-SDE2E3FGHIRWXY/LB1

Departure

Time 2026-05-07 18:04
Airport Koltsovo Airport (USSS)

Arrival

Time N/A
Airport Roshchino International Airport (USTR)
Time Latitude Longitude Altitude Speed Heading
2026-05-07 17:54 56.74760 60.80253 752 ft 0 kts 180°
2026-05-07 18:00 56.74757 60.80251 752 ft 2 kts 189°
2026-05-07 18:00 56.74738 60.80179 779 ft 11 kts 251°
2026-05-07 18:00 56.74675 60.80111 779 ft 11 kts 218°
2026-05-07 18:01 56.74661 60.79968 779 ft 15 kts 270°
2026-05-07 18:01 56.74661 60.79744 778 ft 19 kts 268°
2026-05-07 18:01 56.74660 60.79513 778 ft 18 kts 271°
2026-05-07 18:01 56.74662 60.79313 778 ft 11 kts 271°
2026-05-07 18:02 56.74647 60.79200 779 ft 7 kts 219°
2026-05-07 18:02 56.74563 60.79189 779 ft 17 kts 180°
2026-05-07 18:02 56.74421 60.79145 779 ft 22 kts 199°
2026-05-07 18:03 56.74274 60.79104 779 ft 21 kts 188°
2026-05-07 18:03 56.74185 60.79117 778 ft 12 kts 141°
2026-05-07 18:03 56.74174 60.79246 778 ft 12 kts 85°
2026-05-07 18:03 56.74157 60.79832 778 ft 84 kts 94°
2026-05-07 18:04 56.74098 60.81308 778 ft 148 kts 94°
2026-05-07 18:04 56.74017 60.83339 1130 ft 172 kts 93°
2026-05-07 18:04 56.73933 60.85548 2025 ft 167 kts 89°
2026-05-07 18:04 56.73867 60.87591 3073 ft 165 kts 93°
2026-05-07 18:05 56.73772 60.89822 3635 ft 184 kts 94°
2026-05-07 18:05 56.73676 60.92190 4411 ft 191 kts 94°
2026-05-07 18:05 56.73577 60.94608 5143 ft 199 kts 95°
2026-05-07 18:05 56.73474 60.97176 5796 ft 206 kts 95°
2026-05-07 18:06 56.73682 60.99769 6420 ft 213 kts 63°
2026-05-07 18:06 56.74689 61.01693 7004 ft 213 kts 25°
2026-05-07 18:06 56.76110 61.02154 7575 ft 209 kts 347°
2026-05-07 18:06 56.77369 61.01008 8135 ft 203 kts 311°
2026-05-07 18:07 56.78149 60.98912 8735 ft 200 kts 295°
2026-05-07 18:07 56.78797 60.96654 9323 ft 202 kts 294°
2026-05-07 18:07 56.79439 60.94375 9931 ft 203 kts 294°
2026-05-07 18:07 56.80147 60.92138 10448 ft 208 kts 309°
2026-05-07 18:08 56.81385 60.90783 10936 ft 220 kts 342°
2026-05-07 18:08 56.82987 60.90896 11129 ft 248 kts 14°
2026-05-07 18:08 56.84665 60.92086 11293 ft 271 kts 21°
2026-05-07 18:08 56.86455 60.93550 11441 ft 294 kts 23°
2026-05-07 18:09 56.88232 60.95766 11616 ft 327 kts 41°
2026-05-07 18:09 56.89805 60.99031 11904 ft 360 kts 57°
2026-05-07 18:09 56.90921 61.03223 12683 ft 372 kts 66°
2026-05-07 18:09 56.91911 61.07630 13716 ft 376 kts 67°
2026-05-07 18:10 56.92900 61.12023 14626 ft 380 kts 66°
2026-05-07 18:10 56.93925 61.16500 15507 ft 384 kts 66°
2026-05-07 18:10 56.94984 61.21029 16340 ft 389 kts 66°
2026-05-07 18:10 56.96064 61.25607 17150 ft 394 kts 66°